TimeEDT,TemperatureF,Dew PointF,Humidity,Sea Level PressureIn,VisibilityMPH,Wind Direction,Wind SpeedMPH,Gust SpeedMPH,PrecipitationIn,Events,Conditions,WindDirDegrees,DateUTC
12:53 AM,73.9,73.0,97,30.15,10.0,ESE,5.8,-,N/A,,Scattered Clouds,120,2013-07-04 04:53:00
1:53 AM,75.0,73.9,96,30.14,9.0,ESE,5.8,-,N/A,,Mostly Cloudy,120,2013-07-04 05:53:00
2:53 AM,73.9,73.0,97,30.12,10.0,ESE,5.8,-,0.01,,Scattered Clouds,120,2013-07-04 06:53:00
3:53 AM,73.9,73.0,97,30.10,10.0,ESE,4.6,-,N/A,,Partly Cloudy,120,2013-07-04 07:53:00
4:53 AM,73.9,73.0,97,30.11,10.0,South,3.5,-,N/A,,Scattered Clouds,170,2013-07-04 08:53:00
5:53 AM,73.9,73.0,97,30.11,10.0,East,5.8,-,N/A,,Mostly Cloudy,90,2013-07-04 09:53:00
6:53 AM,73.9,73.0,97,30.12,10.0,East,3.5,-,N/A,,Mostly Cloudy,80,2013-07-04 10:53:00
7:53 AM,75.9,75.0,97,30.13,10.0,ESE,4.6,-,N/A,,Mostly Cloudy,110,2013-07-04 11:53:00
8:53 AM,78.1,73.9,87,30.15,10.0,ESE,9.2,-,N/A,,Mostly Cloudy,120,2013-07-04 12:53:00
9:53 AM,82.0,75.9,82,30.15,10.0,SE,12.7,-,N/A,,Mostly Cloudy,130,2013-07-04 13:53:00
10:53 AM,86.0,73.9,67,30.15,10.0,SE,12.7,-,N/A,,Mostly Cloudy,140,2013-07-04 14:53:00
11:53 AM,88.0,73.0,61,30.14,10.0,SE,12.7,20.7,N/A,,Mostly Cloudy,130,2013-07-04 15:53:00
12:53 PM,89.1,72.0,57,30.14,10.0,SE,16.1,21.9,N/A,,Mostly Cloudy,130,2013-07-04 16:53:00
1:53 PM,90.0,72.0,55,30.12,10.0,SE,16.1,21.9,N/A,,Mostly Cloudy,130,2013-07-04 17:53:00
2:53 PM,91.0,72.0,53,30.11,10.0,SE,13.8,25.3,N/A,,Mostly Cloudy,140,2013-07-04 18:53:00
3:53 PM,84.0,73.0,69,30.11,10.0,SSE,6.9,-,0.00,,Mostly Cloudy,160,2013-07-04 19:53:00
4:53 PM,81.0,77.0,88,30.11,10.0,SSE,8.1,-,0.04,,Mostly Cloudy,160,2013-07-04 20:53:00
5:53 PM,82.0,73.0,74,30.10,10.0,Calm,Calm,-,N/A,,Overcast,0,2013-07-04 21:53:00
6:04 PM,82.4,73.4,74,30.12,2.0,East,10.4,-,0.00,Rain,Light Rain,100,2013-07-04 22:04:00
6:07 PM,80.6,73.4,79,30.12,2.0,ESE,11.5,-,0.00,Rain-Thunderstorm,Light Thunderstorms and Rain,110,2013-07-04 22:07:00
6:18 PM,75.2,71.6,89,30.13,1.2,South,27.6,34.5,0.10,Rain-Thunderstorm,Heavy Thunderstorms and Rain,170,2013-07-04 22:18:00
6:23 PM,73.4,69.8,88,30.14,0.8,SSE,12.7,34.5,0.28,Rain-Thunderstorm,Heavy Thunderstorms and Rain,160,2013-07-04 22:23:00
6:30 PM,71.6,69.8,94,30.15,2.0,SSE,4.6,24.2,0.46,Rain-Thunderstorm,Heavy Thunderstorms and Rain,160,2013-07-04 22:30:00
6:39 PM,71.6,69.8,94,30.15,2.0,East,3.5,-,0.59,Rain-Thunderstorm,Heavy Thunderstorms and Rain,90,2013-07-04 22:39:00
6:47 PM,71.6,69.8,94,30.14,4.0,Variable,3.5,-,0.70,Rain-Thunderstorm,Thunderstorms and Rain,0,2013-07-04 22:47:00
6:53 PM,72.0,70.0,93,30.15,4.0,East,9.2,-,0.72,Rain-Thunderstorm,Thunderstorms and Rain,100,2013-07-04 22:53:00
7:35 PM,75.2,73.4,94,30.14,10.0,Calm,Calm,-,0.07,,Overcast,0,2013-07-04 23:35:00
7:53 PM,75.9,73.9,94,30.15,10.0,North,3.5,-,0.07,,Overcast,360,2013-07-04 23:53:00
8:53 PM,77.0,75.0,94,30.15,10.0,Variable,3.5,-,N/A,,Overcast,0,2013-07-05 00:53:00
9:53 PM,77.0,75.0,94,30.17,10.0,Calm,Calm,-,N/A,,Mostly Cloudy,0,2013-07-05 01:53:00
10:53 PM,77.0,75.0,94,30.17,8.0,East,3.5,-,N/A,,Mostly Cloudy,80,2013-07-05 02:53:00
11:53 PM,75.9,73.9,94,30.17,10.0,ESE,5.8,-,N/A,,Scattered Clouds,120,2013-07-05 03:53:00